Date String (YYYY-MM-DD hh:mm:ss) UTC,Instrument flags,absolute air pressure of the measurement (hPa),sample flow rate (lpm),inlet stack bypass flow (lpm),air temperature of the measurement (°C),ambient temperature measured by the external sensor (°C),aerosol sample conditioner tube jacket temperature (°C),OPC LED temperature (°C),internal box temperature (°C),relative humidity of the measurement (%),span deviation,mass concentration of particles derived from Lorenz-Mie calculation of OPC scattering (μg/m³),mass concentration of particles derived from Lorenz-Mie calculation of OPC scattering (μg/m³),mass concentration of particles derived from Lorenz-Mie calculation of OPC scattering (μg/m³)
DateTimeUTC,F1_M11,P_M11,Q1_M11,Q2_M11,T1_M11,T2_M11,T3_M11,T4_M11,T5_M11,U1_M11,ZSPAN_M11,X0_M11,X2_M11,X1_M11
2023-06-15 11:00:00,SystemResetWarning,0824.9,5.00,000.00,029.9,028.2,000.0,038.5,031.4,19.7,0000.0,0003.28,0001.21,0000.95
2023-06-15 11:01:00,SystemResetWarning,0824.9,5.00,000.00,029.9,028.2,000.0,038.5,031.3,19.9,0000.0,0003.05,0001.21,0000.94
2023-06-15 11:02:00,SystemResetWarning,0824.9,5.00,000.00,029.9,028.2,000.0,038.5,031.4,19.6,0000.0,0002.79,0001.20,0000.92
2023-06-15 11:03:00,SystemResetWarning,0824.9,5.00,000.00,029.9,028.3,000.0,038.5,031.4,19.6,0000.0,0002.00,0001.14,0000.90
2023-06-15 11:04:00,SystemResetWarning,0824.9,5.00,000.00,029.9,028.3,000.0,038.5,031.4,19.4,0000.0,0002.03,0001.13,0000.88
2023-06-15 11:05:00,SystemResetWarning,0824.9,5.00,000.00,029.9,028.3,000.0,038.5,031.4,19.3,0000.0,0002.18,0001.15,0000.87
2023-06-15 11:06:00,SystemResetWarning,0824.9,5.00,000.00,029.9,028.3,000.0,038.5,031.4,19.0,0000.0,0002.25,0001.13,0000.86
2023-06-15 11:07:00,SystemResetWarning,0824.9,5.00,000.00,029.9,028.3,000.0,038.5,031.4,19.0,0000.0,0002.29,0001.13,0000.84
2023-06-15 11:08:00,SystemResetWarning,0824.9,5.00,000.00,029.9,028.3,000.0,038.5,031.4,19.1,0000.0,0002.37,0001.16,0000.84
2023-06-15 11:09:00,SystemResetWarning,0824.9,5.00,000.00,030.0,028.3,000.0,038.5,031.4,18.7,0000.0,0002.41,0001.17,0000.84
2023-06-15 11:10:00,SystemResetWarning,0824.9,5.00,000.00,030.0,028.3,000.0,038.5,031.4,18.6,0000.0,0002.43,0001.17,0000.84
2023-06-15 11:11:00,SystemResetWarning,0824.9,5.00,000.00,030.0,028.3,000.0,038.5,031.4,18.7,0000.0,0002.43,0001.17,0000.84
2023-06-15 11:12:00,SystemResetWarning,0824.9,5.00,000.00,030.0,028.3,000.0,038.5,031.5,18.9,0000.0,0002.38,0001.16,0000.84
2023-06-15 11:13:00,SystemResetWarning,0824.8,5.00,000.00,030.0,028.3,000.0,038.5,031.4,18.8,0000.0,0002.85,0001.24,0000.85
2023-06-15 11:14:00,SystemResetWarning,0824.9,5.00,000.00,030.0,028.3,000.0,038.5,031.5,18.7,0000.0,0002.81,0001.29,0000.85
2023-06-15 11:15:00,SystemResetWarning,0824.8,5.00,000.00,030.0,028.3,000.0,038.6,031.5,18.8,0000.0,0002.74,0001.28,0000.86
2023-06-15 11:16:00,SystemResetWarning,0824.9,5.00,000.00,030.0,028.3,000.0,038.6,031.5,18.7,0000.0,0003.47,0001.25,0000.85
2023-06-15 11:17:00,SystemResetWarning,0824.8,5.00,000.00,030.0,028.3,000.0,038.6,031.4,18.7,0000.0,0003.40,0001.25,0000.85
2023-06-15 11:18:00,SystemResetWarning,0824.9,5.00,000.00,030.0,028.3,000.0,038.6,031.4,19.0,0000.0,0003.38,0001.24,0000.85
2023-06-15 11:19:00,SystemResetWarning,0824.9,5.00,000.00,030.0,028.4,000.0,038.6,031.5,18.9,0000.0,0003.28,0001.22,0000.86
2023-06-15 11:20:00,SystemResetWarning,0824.9,5.00,000.00,030.0,028.4,000.0,038.6,031.5,18.7,0000.0,0003.25,0001.21,0000.86
2023-06-15 11:21:00,SystemResetWarning,0824.9,5.00,000.00,030.0,028.4,000.0,038.6,031.5,18.6,0000.0,0003.21,0001.19,0000.85
2023-06-15 11:22:00,SystemResetWarning,0824.9,5.00,000.00,030.0,028.4,000.0,038.6,031.5,18.6,0000.0,0003.14,0001.16,0000.84
2023-06-15 11:23:00,SystemResetWarning,0824.9,5.00,000.00,030.0,028.4,000.0,038.6,031.5,19.6,0000.0,0003.31,0001.15,0000.84
2023-06-15 11:24:00,SystemResetWarning,0825.0,5.00,000.00,030.0,028.4,000.0,038.6,031.5,21.1,0000.0,0003.32,0001.09,0000.85
2023-06-15 11:25:00,SystemResetWarning,0825.0,5.00,000.00,030.1,028.4,000.0,038.6,031.5,20.7,0000.0,0003.21,0001.08,0000.86
2023-06-15 11:26:00,SystemResetWarning,0825.0,5.00,000.00,030.1,028.5,000.0,038.6,031.5,20.9,0000.0,0003.33,0001.12,0000.87
2023-06-15 11:27:00,SystemResetWarning,0825.1,5.00,000.00,030.1,028.5,000.0,038.6,031.6,21.4,0000.0,0002.61,0001.14,0000.88
2023-06-15 11:28:00,SystemResetWarning,0825.1,5.00,000.00,030.1,028.5,000.0,038.6,031.6,21.3,0000.0,0002.52,0001.18,0000.91
2023-06-15 11:29:00,SystemResetWarning,0825.1,5.00,000.00,030.1,028.5,000.0,038.6,031.6,20.6,0000.0,0002.60,0001.23,0000.93
2023-06-15 11:30:00,SystemResetWarning,0825.1,5.00,000.00,030.1,028.5,000.0,038.6,031.6,20.3,0000.0,0002.75,0001.25,0000.93
2023-06-15 11:31:00,SystemResetWarning,0825.1,5.00,000.00,030.1,028.5,000.0,038.7,031.6,20.1,0000.0,0003.04,0001.25,0000.93
2023-06-15 11:32:00,SystemResetWarning,0825.1,5.00,000.00,030.1,028.6,000.0,038.7,031.7,19.9,0000.0,0003.43,0001.30,0000.94
2023-06-15 11:33:00,SystemResetWarning,0825.1,5.00,000.00,030.1,028.6,000.0,038.7,031.6,20.3,0000.0,0003.51,0001.34,0000.97
2023-06-15 11:34:00,SystemResetWarning,0825.1,5.00,000.00,030.1,028.6,000.0,038.7,031.6,20.5,0000.0,0003.48,0001.39,0000.99
2023-06-15 11:35:00,SystemResetWarning,0825.1,5.00,000.00,030.1,028.6,000.0,038.7,031.7,20.8,0000.0,0003.04,0001.43,0000.99
2023-06-15 11:36:00,SystemResetWarning,0825.1,5.00,000.00,030.2,028.6,000.0,038.7,031.7,20.9,0000.0,0003.12,0001.44,0001.00
2023-06-15 11:37:00,SystemResetWarning,0825.1,5.00,000.00,030.2,028.5,000.0,038.7,031.6,20.9,0000.0,0002.99,0001.41,0001.00
2023-06-15 11:38:00,SystemResetWarning,0825.1,5.00,000.00,030.1,028.5,000.0,038.7,031.6,21.2,0000.0,0002.97,0001.42,0001.01
2023-06-15 11:39:00,SystemResetWarning,0825.1,5.00,000.00,030.1,028.5,000.0,038.7,031.6,21.4,0000.0,0003.04,0001.43,0001.02
2023-06-15 11:40:00,SystemResetWarning,0825.1,5.00,000.00,030.1,028.5,000.0,038.7,031.6,21.7,0000.0,0003.13,0001.45,0001.03
2023-06-15 11:41:00,SystemResetWarning,0825.1,5.00,000.00,030.2,028.5,000.0,038.7,031.6,21.7,0000.0,0003.13,0001.52,0001.07
2023-06-15 11:42:00,SystemResetWarning,0825.1,5.00,000.00,030.2,028.5,000.0,038.7,031.6,21.5,0000.0,0003.29,0001.65,0001.11
2023-06-15 11:43:00,SystemResetWarning,0825.1,5.00,000.00,030.2,028.5,000.0,038.7,031.7,21.4,0000.0,0003.20,0001.69,0001.14
2023-06-15 11:44:00,SystemResetWarning,0825.1,5.00,000.00,030.2,028.5,000.0,038.7,031.7,21.3,0000.0,0003.26,0001.70,0001.17
2023-06-15 11:45:00,SystemResetWarning,0825.1,5.00,000.00,030.2,028.5,000.0,038.7,031.6,21.4,0000.0,0003.28,0001.72,0001.18
2023-06-15 11:46:00,SystemResetWarning,0825.1,5.01,000.00,030.2,028.5,000.0,038.7,031.7,21.4,0000.0,0003.19,0001.70,0001.20
2023-06-15 11:47:00,SystemResetWarning,0825.1,5.00,000.00,030.2,028.6,000.0,038.8,031.7,21.0,0000.0,0003.05,0001.67,0001.21
2023-06-15 11:48:00,SystemResetWarning,0825.1,5.00,000.00,030.2,028.6,000.0,038.8,031.7,20.8,0000.0,0003.17,0001.72,0001.22
2023-06-15 11:49:00,SystemResetWarning,0825.2,5.00,000.00,030.2,028.6,000.0,038.8,031.7,21.0,0000.0,0003.24,0001.73,0001.23
2023-06-15 11:50:00,SystemResetWarning,0825.1,4.99,000.00,030.2,028.6,000.0,038.8,031.7,20.8,0000.0,0003.20,0001.72,0001.23
2023-06-15 11:51:00,SystemResetWarning,0825.1,5.00,000.00,030.2,028.6,000.0,038.8,031.7,20.6,0000.0,0003.11,0001.70,0001.21
2023-06-15 11:52:00,SystemResetWarning,0825.1,5.01,000.00,030.2,028.6,000.0,038.8,031.7,20.6,0000.0,0003.05,0001.65,0001.20
2023-06-15 11:53:00,SystemResetWarning,0825.1,5.01,000.00,030.2,028.6,000.0,038.8,031.7,20.9,0000.0,0002.76,0001.58,0001.19
2023-06-15 11:54:00,SystemResetWarning,0825.1,5.00,000.00,030.2,028.6,000.0,038.8,031.7,21.0,0000.0,0002.69,0001.57,0001.18
2023-06-15 11:55:00,SystemResetWarning,0825.2,4.99,000.00,030.2,028.6,000.0,038.8,031.7,21.2,0000.0,0003.01,0001.62,0001.18
2023-06-15 11:56:00,SystemResetWarning,0825.2,4.99,000.00,030.2,028.6,000.0,038.8,031.7,21.4,0000.0,0003.02,0001.62,0001.20
2023-06-15 11:57:00,SystemResetWarning,0825.2,4.99,000.00,030.2,028.6,000.0,038.8,031.7,21.5,0000.0,0004.15,0001.69,0001.21
2023-06-15 11:58:00,SystemResetWarning,0825.2,5.00,000.00,030.2,028.6,000.0,038.8,031.7,21.6,0000.0,0004.87,0001.75,0001.22
2023-06-15 11:59:00,SystemResetWarning,0825.2,5.01,000.00,030.2,028.6,000.0,038.8,031.7,21.6,0000.0,0004.93,0001.77,0001.24
